Regional Weather Roundup
Issued by NWS Charleston, WV

Home | Current Version | Previous Version | Text Only | Print | Product List | Glossary Off
Versions: 1 2 3 4 5 6 7 8 9 10 11 12 13 14 15 16 17 18 19 20 21 22 23 24 25 26 27 28 29 30 31 32 33 34 35 36 37 38 39 40 41 42 43 44 45 46 47 48 49 50

000
ASUS41 KRLX 211510
RWRRLX
West Virginia Regional Weather Roundup
National Weather Service Charleston WV
1100 AM EDT SUN SEP 21 2014

Note: "fair" indicates few or no clouds below 12,000 feet with no
significant weather and/or obstructions to visibility.

WVZ003-211600-
Northern Panhandle of West Virginia

CITY           SKY/WX    TMP DP  RH WIND       PRES   REMARKS
WHEELING       CLOUDY    69  64  84 SW12      29.78F
$$

WVZ009-211600-
Northwest West Virginia

CITY           SKY/WX    TMP DP  RH WIND       PRES   REMARKS
PARKERSBURG    CLOUDY    73  65  75 SW8G18    29.84F
$$

WVZ006-211600-
Western West Virginia

CITY           SKY/WX    TMP DP  RH WIND       PRES   REMARKS
HUNTINGTON     PTSUNNY   72  66  81 S8        29.87S
$$

WVZ015-211600-
West Central West Virginia

CITY           SKY/WX    TMP DP  RH WIND       PRES   REMARKS
CHARLESTON     CLOUDY    72  66  81 SW6       29.88F
$$

WVZ031-211600-
North Central West Virginia

CITY           SKY/WX    TMP DP  RH WIND       PRES   REMARKS
CLARKSBURG     LGT RAIN  68  65  90 SW5       29.85F FOG
MORGANTOWN     LGT RAIN  70  64  81 S6        29.84F
$$

WVZ035-042-045-211600-
South Central West Virginia

CITY           SKY/WX    TMP DP  RH WIND       PRES   REMARKS
BECKLEY        PTSUNNY   69  60  73 SW14G21   29.99F
BLUEFIELD      CLOUDY    70  60  70 W10G18    30.02F
LEWISBURG      MOSUNNY   64  62  94 SW5       29.96F
$$

WVZ047-211600-
Northern Mountains of West Virginia

CITY           SKY/WX    TMP DP  RH WIND       PRES   REMARKS
ELKINS         PTSUNNY   72  63  73 S7        29.90F
$$

WVZ052-211600-
Eastern Panhandle of West Virginia

CITY           SKY/WX    TMP DP  RH WIND       PRES   REMARKS
MARTINSBURG    SUNNY     74  57  55 S6        29.84F
PETERSBURG     MOSUNNY   80  58  46 SE9       29.82F
$$


USA.gov is the U.S. government's official web portal to all federal, state and local government web resources and services.